Location: Newark
(51.2625°N, 13.3939°E)
Time: 01:42:28
(UTC+00:00)

Envisat - Visible Passes

Search period start: 19 October 2019 00:00
Search period end: 29 October 2019 00:00
Orbit: 764 x 766 km, 98.1° (Epoch: 18 October)

Date Brightness Start Highest point End Pass type
(mag) Time Alt. Az. Time Alt. Az. Time Alt. Az.
19 Oct 3.1 16:30:24 10° SE 16:35:20 55° ENE 16:40:19 10° N visible
19 Oct 5.3 18:10:32 10° SSW 18:14:41 25° W 18:18:53 10° NW visible
20 Oct 6.4 04:35:41 10° ENE 04:37:58 13° E 04:40:14 10° ESE visible
20 Oct 4.0 17:32:44 10° S 17:37:38 48° W 17:42:35 10° NNW visible
21 Oct 3.0 16:55:42 10° SSE 17:00:47 86° ENE 17:05:55 10° NNW visible
21 Oct 6.0 18:37:30 10° WSW 18:40:31 16° W 18:43:33 10° NW visible
22 Oct 6.0 05:00:01 10° NE 05:03:50 21° E 05:07:38 10° SE visible
22 Oct 5.0 17:58:52 10° SSW 18:03:19 30° W 18:07:49 10° NNW visible
23 Oct 6.7 04:25:54 10° ENE 04:26:30 10° E 04:27:07 10° E visible
23 Oct 3.6 17:21:19 10° S 17:26:19 59° W 17:31:23 10° NNW visible
24 Oct 3.0 16:44:28 10° SSE 16:49:32 72° ENE 16:54:37 10° N visible
24 Oct 5.7 18:25:31 10° SW 18:29:06 19° W 18:32:43 10° NW visible
25 Oct 6.1 04:49:06 10° NE 04:52:25 17° E 04:55:44 10° SE visible
25 Oct 4.6 17:47:17 10° SSW 17:51:58 37° W 17:56:41 10° NNW visible
26 Oct 3.3 17:09:57 10° S 17:15:02 73° WSW 17:20:09 10° NNW visible
26 Oct 6.2 18:53:14 10° WSW 18:54:59 12° W 18:56:45 10° WNW visible
27 Oct 5.5 05:13:53 10° NE 05:18:13 27° E 05:22:32 10° SSE visible
27 Oct 3.0 16:33:18 10° SSE 16:38:17 59° ENE 16:43:18 10° N visible
27 Oct 5.4 18:13:41 10° SW 18:17:42 23° W 18:21:45 10° NW visible
28 Oct 6.2 04:38:22 10° NE 04:41:00 14° E 04:43:38 10° ESE visible
28 Oct 4.2 17:35:47 10° S 17:40:37 45° W 17:45:32 10° NNW visible
